• In Uzbekistan
  • List of Countries
  • For 7 days
  • Water Temperature
  • Weather Map
  • Weather Widgets
  • user-avatar
    Login

    Hourly Weather Salzburg

    Today, 9 December, Monday

    Time Temperature Precipitation Wind Pressure Humidity
    00:00 -2°C° 0 mm 1 mps 619 mmHg 63%
    01:00 -4°C° 0 mm 2 mps 619 mmHg 60%
    02:00 -4°C° 0 mm 2 mps 618 mmHg 62%
    03:00 -2°C° 0 mm 1 mps 618 mmHg 64%
    04:00 -2°C° 0 mm 1 mps 617 mmHg 66%
    05:00 -2°C° 0.3 mm 1 mps 618 mmHg 72%
    06:00 -2°C° 0.3 mm 1 mps 618 mmHg 78%
    07:00 -2°C° 0 mm 1 mps 618 mmHg 83%
    08:00 -1°C° 1 mm 1 mps 618 mmHg 86%
    09:00 -1°C° 1 mm 1 mps 618 mmHg 89%
    10:00 -1°C° 1 mm 1 mps 618 mmHg 91%
    11:00 -1°C° 0.7 mm 1 mps 618 mmHg 92%
    12:00 0°C° 0.7 mm 1 mps 617 mmHg 92%
    13:00 0°C° 0 mm 1 mps 617 mmHg 94%
    14:00 0°C° 0.4 mm 1 mps 617 mmHg 94%
    15:00 -1°C° 0.4 mm 1 mps 616 mmHg 94%
    16:00 -2°C° 0.4 mm 0 mps 616 mmHg 95%
    17:00 -2°C° 0.3 mm 0 mps 616 mmHg 95%
    18:00 -3°C° 0.3 mm 0 mps 617 mmHg 95%
    19:00 -3°C° 0.3 mm 0 mps 617 mmHg 96%
    20:00 -3°C° 0.3 mm 0 mps 618 mmHg 96%
    21:00 -3°C° 0.3 mm 0 mps 618 mmHg 96%
    22:00 -2°C° 0.3 mm 1 mps 618 mmHg 95%
    23:00 -3°C° 1 mm 1 mps 619 mmHg 96%

    Tomorrow, 10 December, Tuesday

    Time Temperature Precipitation Wind Pressure Humidity
    00:00 -3°C° 1 mm 1 mps 620 mmHg 97%
    01:00 -5°C° 1 mm 2 mps 620 mmHg 97%
    02:00 -5°C° 1 mm 2 mps 621 mmHg 97%
    03:00 -5°C° 1 mm 2 mps 621 mmHg 97%
    04:00 -5°C° 1 mm 2 mps 622 mmHg 98%
    05:00 -5°C° 1.4 mm 2 mps 622 mmHg 98%
    06:00 -5°C° 1.4 mm 2 mps 623 mmHg 97%
    07:00 -6°C° 1.4 mm 3 mps 624 mmHg 97%
    08:00 -7°C° 0.8 mm 3 mps 625 mmHg 95%
    09:00 -7°C° 0.8 mm 3 mps 625 mmHg 93%
    10:00 -8°C° 0.8 mm 3 mps 626 mmHg 91%
    11:00 -8°C° 0.1 mm 3 mps 626 mmHg 87%
    12:00 -7°C° 0.1 mm 2 mps 626 mmHg 83%
    13:00 -7°C° 0.1 mm 2 mps 627 mmHg 80%
    14:00 -8°C° 0 mm 2 mps 626 mmHg 84%
    15:00 -8°C° 0 mm 1 mps 626 mmHg 87%
    16:00 -9°C° 0 mm 1 mps 625 mmHg 91%
    17:00 -10°C° 0 mm 1 mps 625 mmHg 90%
    18:00 -11°C° 0 mm 1 mps 625 mmHg 89%
    19:00 -12°C° 0 mm 1 mps 625 mmHg 88%
    20:00 -12°C° 0 mm 1 mps 624 mmHg 85%
    21:00 -14°C° 0 mm 2 mps 624 mmHg 83%
    22:00 -14°C° 0 mm 2 mps 624 mmHg 80%
    23:00 -14°C° 0 mm 2 mps 624 mmHg 73%

    Day after tomorrow, 11 December, Wednesday

    Time Temperature Precipitation Wind Pressure Humidity
    00:00 -14°C° 0 mm 2 mps 623 mmHg 67%
    01:00 -13°C° 0 mm 2 mps 623 mmHg 60%
    02:00 -13°C° 0 mm 2 mps 623 mmHg 57%
    03:00 -12°C° 0 mm 2 mps 622 mmHg 54%
    04:00 -12°C° 0 mm 2 mps 622 mmHg 50%
    05:00 -10°C° 0 mm 2 mps 621 mmHg 48%
    06:00 -10°C° 0 mm 2 mps 621 mmHg 46%
    07:00 -9°C° 0 mm 2 mps 621 mmHg 45%
    08:00 -6°C° 0 mm 1 mps 621 mmHg 48%
    09:00 -4°C° 0 mm 1 mps 622 mmHg 52%
    10:00 -2°C° 0 mm 1 mps 622 mmHg 56%
    11:00 -1°C° 0 mm 1 mps 622 mmHg 61%
    12:00 -1°C° 0 mm 0 mps 621 mmHg 67%
    13:00 0°C° 0 mm 0 mps 621 mmHg 73%
    14:00 -1°C° 0 mm 0 mps 620 mmHg 70%
    15:00 -3°C° 0 mm 0 mps 619 mmHg 67%
    16:00 -5°C° 0 mm 0 mps 618 mmHg 64%
    17:00 -5°C° 0 mm 0 mps 618 mmHg 60%
    18:00 -6°C° 0 mm 1 mps 617 mmHg 56%
    19:00 -6°C° 0 mm 1 mps 617 mmHg 53%
    20:00 -6°C° 0 mm 1 mps 617 mmHg 56%
    21:00 -7°C° 0 mm 1 mps 617 mmHg 58%
    22:00 -7°C° 0 mm 1 mps 617 mmHg 61%
    23:00 -7°C° 0 mm 1 mps 616 mmHg 66%

    12 December, Thursday

    Time Temperature Precipitation Wind Pressure Humidity
    00:00 -7°C° 0 mm 1 mps 616 mmHg 70%
    01:00 -7°C° 0 mm 0 mps 616 mmHg 75%
    02:00 -7°C° 0.2 mm 0 mps 615 mmHg 80%
    03:00 -7°C° 0.2 mm 0 mps 615 mmHg 85%
    04:00 -7°C° 0.2 mm 0 mps 614 mmHg 90%
    05:00 -7°C° 0.6 mm 0 mps 615 mmHg 93%
    06:00 -7°C° 0.6 mm 1 mps 615 mmHg 95%
    07:00 -6°C° 0.6 mm 1 mps 616 mmHg 97%
    08:00 -6°C° 0.6 mm 1 mps 616 mmHg 97%
    09:00 -4°C° 0.6 mm 1 mps 616 mmHg 96%
    10:00 -4°C° 0.6 mm 1 mps 616 mmHg 96%
    11:00 -4°C° 0.4 mm 1 mps 616 mmHg 96%
    12:00 -4°C° 0.4 mm 1 mps 616 mmHg 95%
    13:00 -4°C° 0.4 mm 1 mps 616 mmHg 95%
    14:00 -4°C° 0.5 mm 1 mps 616 mmHg 96%
    15:00 -4°C° 0.5 mm 1 mps 615 mmHg 96%
    16:00 -6°C° 0.5 mm 1 mps 615 mmHg 97%
    17:00 -6°C° 0.3 mm 1 mps 615 mmHg 97%
    18:00 -7°C° 0.3 mm 1 mps 615 mmHg 97%
    19:00 -8°C° 0.3 mm 1 mps 615 mmHg 96%
    20:00 -8°C° 0.1 mm 1 mps 614 mmHg 94%
    21:00 -9°C° 0.1 mm 1 mps 614 mmHg 92%
    22:00 -12°C° 0.1 mm 2 mps 613 mmHg 90%
    23:00 -12°C° 0 mm 2 mps 612 mmHg 88%

    13 December, Friday

    Time Temperature Precipitation Wind Pressure Humidity
    00:00 -13°C° 0 mm 3 mps 611 mmHg 85%
    01:00 -14°C° 0 mm 3 mps 610 mmHg 83%
    02:00 -13°C° 0 mm 3 mps 609 mmHg 81%
    03:00 -14°C° 0 mm 4 mps 608 mmHg 79%
    04:00 -12°C° 0 mm 4 mps 607 mmHg 77%
    05:00 -11°C° 0.1 mm 4 mps 607 mmHg 79%
    06:00 -11°C° 0.1 mm 4 mps 606 mmHg 80%
    07:00 -10°C° 0.1 mm 4 mps 606 mmHg 82%
    08:00 -9°C° 0.2 mm 4 mps 606 mmHg 82%
    09:00 -9°C° 0.2 mm 4 mps 605 mmHg 83%
    10:00 -8°C° 0.2 mm 3 mps 605 mmHg 84%
    11:00 -7°C° 0.1 mm 3 mps 605 mmHg 84%
    12:00 -6°C° 0.1 mm 2 mps 605 mmHg 84%
    13:00 -5°C° 0.1 mm 2 mps 605 mmHg 83%
    14:00 -4°C° 0.1 mm 1 mps 605 mmHg 86%
    15:00 -6°C° 0.1 mm 1 mps 605 mmHg 88%
    16:00 -6°C° 0.1 mm 0 mps 604 mmHg 90%
    17:00 -7°C° 0 mm 1 mps 604 mmHg 89%
    18:00 -8°C° 0 mm 1 mps 604 mmHg 88%
    19:00 -9°C° 0 mm 1 mps 605 mmHg 88%
    20:00 -8°C° 0 mm 1 mps 605 mmHg 87%
    21:00 -8°C° 0 mm 1 mps 605 mmHg 86%
    22:00 -8°C° 0 mm 1 mps 606 mmHg 85%
    23:00 -8°C° 0 mm 1 mps 606 mmHg 85%

    14 December, Saturday

    Time Temperature Precipitation Wind Pressure Humidity
    00:00 -8°C° 0 mm 1 mps 606 mmHg 86%
    01:00 -8°C° 0 mm 1 mps 607 mmHg 86%
    02:00 -8°C° 0 mm 1 mps 607 mmHg 84%
    03:00 -9°C° 0 mm 1 mps 607 mmHg 82%
    04:00 -10°C° 0 mm 1 mps 607 mmHg 80%
    05:00 -12°C° 0 mm 2 mps 607 mmHg 79%
    06:00 -12°C° 0 mm 2 mps 608 mmHg 78%
    07:00 -12°C° 0 mm 2 mps 608 mmHg 77%
    08:00 -9°C° 0.1 mm 2 mps 609 mmHg 78%
    09:00 -8°C° 0.1 mm 2 mps 610 mmHg 80%
    10:00 -6°C° 0.1 mm 2 mps 611 mmHg 82%
    11:00 -6°C° 0.6 mm 2 mps 611 mmHg 85%
    12:00 -5°C° 0.6 mm 2 mps 611 mmHg 88%
    13:00 -5°C° 0.6 mm 2 mps 611 mmHg 91%
    14:00 -5°C° 0.9 mm 2 mps 611 mmHg 93%
    15:00 -3°C° 0.9 mm 1 mps 612 mmHg 95%
    16:00 -3°C° 0.9 mm 1 mps 612 mmHg 97%
    17:00 -2°C° 0.5 mm 1 mps 613 mmHg 94%
    18:00 -4°C° 0.5 mm 2 mps 614 mmHg 91%
    19:00 -4°C° 0.5 mm 2 mps 614 mmHg 88%
    20:00 -4°C° 0.2 mm 2 mps 615 mmHg 88%
    21:00 -2°C° 0.2 mm 1 mps 616 mmHg 89%
    22:00 -2°C° 0.2 mm 1 mps 616 mmHg 89%
    23:00 -2°C° 0.4 mm 1 mps 617 mmHg 90%
    Show more